When you browse on this site, cookies collect data to enhance your experience and personalize the content and advertising you see.
Visit our Privacy Policy to learn more. By continuing to use the site, you agree to this use of cookies and data.
  • In Sweden
  • List of Countries
  • For 7 days
  • Water Temperature
  • Weather Map
  • Weather Widgets
  • user-avatar
    Login

    Hourly Weather Agra

    Today, 17 January, Friday

    Time Temperature Precipitation Wind Pressure Humidity
    00:00 +15°C° 0.1 mm 1 mps 746 mmHg 93%
    01:00 +15°C° 0.1 mm 1 mps 746 mmHg 93%
    02:00 +15°C° 0.1 mm 1 mps 746 mmHg 93%
    03:00 +14°C° 0.1 mm 1 mps 746 mmHg 94%
    04:00 +14°C° 0.1 mm 1 mps 745 mmHg 94%
    05:00 +14°C° 0 mm 2 mps 745 mmHg 97%
    06:00 +14°C° 0 mm 2 mps 746 mmHg 95%
    07:00 +14°C° 0 mm 2 mps 746 mmHg 94%
    08:00 +14°C° 0 mm 2 mps 746 mmHg 93%
    09:00 +16°C° 0.1 mm 3 mps 746 mmHg 87%
    10:00 +17°C° 0.1 mm 3 mps 747 mmHg 82%
    11:00 +18°C° 0 mm 2 mps 748 mmHg 78%
    12:00 +18°C° 0.1 mm 3 mps 747 mmHg 76%
    13:00 +18°C° 0.1 mm 3 mps 746 mmHg 74%
    14:00 +19°C° 0.1 mm 3 mps 746 mmHg 73%
    15:00 +18°C° 0 mm 3 mps 745 mmHg 74%
    16:00 +17°C° 0 mm 2 mps 745 mmHg 76%
    17:00 +16°C° 0 mm 2 mps 746 mmHg 79%
    18:00 +16°C° 0 mm 2 mps 746 mmHg 81%
    19:00 +15°C° 0 mm 2 mps 747 mmHg 83%
    20:00 +14°C° 0 mm 1 mps 748 mmHg 86%
    21:00 +14°C° 0 mm 1 mps 748 mmHg 87%
    22:00 +13°C° 0 mm 1 mps 748 mmHg 88%
    23:00 +13°C° 0 mm 1 mps 748 mmHg 90%

    Tomorrow, 18 January, Saturday

    Time Temperature Precipitation Wind Pressure Humidity
    00:00 +13°C° 0 mm 1 mps 748 mmHg 90%
    01:00 +13°C° 0 mm 1 mps 748 mmHg 90%
    02:00 +11°C° 0 mm 0 mps 748 mmHg 90%
    03:00 +12°C° 0 mm 1 mps 747 mmHg 91%
    04:00 +12°C° 0 mm 1 mps 747 mmHg 91%
    05:00 +12°C° 0 mm 2 mps 747 mmHg 92%
    06:00 +12°C° 0 mm 1 mps 748 mmHg 90%
    07:00 +13°C° 0 mm 1 mps 748 mmHg 88%
    08:00 +13°C° 0 mm 1 mps 749 mmHg 86%
    09:00 +15°C° 0 mm 1 mps 749 mmHg 79%
    10:00 +18°C° 0 mm 1 mps 749 mmHg 72%
    11:00 +20°C° 0 mm 1 mps 749 mmHg 66%
    12:00 +20°C° 0 mm 1 mps 748 mmHg 62%
    13:00 +21°C° 0 mm 1 mps 748 mmHg 59%
    14:00 +20°C° 0 mm 2 mps 747 mmHg 56%
    15:00 +19°C° 0 mm 2 mps 747 mmHg 60%
    16:00 +18°C° 0 mm 2 mps 746 mmHg 64%
    17:00 +18°C° 0 mm 1 mps 746 mmHg 69%
    18:00 +16°C° 0 mm 1 mps 746 mmHg 72%
    19:00 +16°C° 0 mm 2 mps 747 mmHg 76%
    20:00 +15°C° 0 mm 2 mps 748 mmHg 79%
    21:00 +14°C° 0 mm 2 mps 748 mmHg 81%
    22:00 +14°C° 0 mm 1 mps 748 mmHg 82%
    23:00 +14°C° 0 mm 1 mps 748 mmHg 84%

    Day after tomorrow, 19 January, Sunday

    Time Temperature Precipitation Wind Pressure Humidity
    00:00 +13°C° 0 mm 2 mps 748 mmHg 85%
    01:00 +13°C° 0 mm 2 mps 747 mmHg 86%
    02:00 +12°C° 0 mm 2 mps 747 mmHg 88%
    03:00 +12°C° 0 mm 2 mps 747 mmHg 87%
    04:00 +10°C° 0 mm 2 mps 747 mmHg 87%
    05:00 +10°C° 0 mm 2 mps 747 mmHg 86%
    06:00 +12°C° 0 mm 2 mps 747 mmHg 83%
    07:00 +12°C° 0 mm 2 mps 748 mmHg 79%
    08:00 +13°C° 0 mm 2 mps 749 mmHg 76%
    09:00 +15°C° 0 mm 2 mps 749 mmHg 67%
    10:00 +16°C° 0 mm 2 mps 749 mmHg 58%
    11:00 +18°C° 0 mm 3 mps 749 mmHg 49%
    12:00 +19°C° 0 mm 3 mps 749 mmHg 47%
    13:00 +20°C° 0 mm 3 mps 748 mmHg 45%
    14:00 +20°C° 0 mm 3 mps 748 mmHg 43%
    15:00 +19°C° 0 mm 3 mps 747 mmHg 48%
    16:00 +18°C° 0 mm 2 mps 747 mmHg 52%
    17:00 +16°C° 0 mm 2 mps 747 mmHg 57%
    18:00 +15°C° 0 mm 2 mps 747 mmHg 58%
    19:00 +14°C° 0 mm 1 mps 747 mmHg 58%
    20:00 +13°C° 0 mm 1 mps 748 mmHg 59%
    21:00 +13°C° 0 mm 1 mps 748 mmHg 58%
    22:00 +12°C° 0 mm 1 mps 748 mmHg 57%
    23:00 +12°C° 0 mm 1 mps 748 mmHg 56%

    20 January, Monday

    Time Temperature Precipitation Wind Pressure Humidity
    00:00 +12°C° 0 mm 1 mps 748 mmHg 56%
    01:00 +10°C° 0 mm 2 mps 747 mmHg 57%
    02:00 +10°C° 0 mm 2 mps 747 mmHg 57%
    03:00 +11°C° 0 mm 1 mps 747 mmHg 59%
    04:00 +10°C° 0 mm 1 mps 747 mmHg 61%
    05:00 +10°C° 0 mm 1 mps 746 mmHg 64%
    06:00 +11°C° 0 mm 1 mps 747 mmHg 63%
    07:00 +11°C° 0 mm 1 mps 748 mmHg 63%
    08:00 +12°C° 0 mm 1 mps 748 mmHg 62%
    09:00 +14°C° 0 mm 1 mps 748 mmHg 58%
    10:00 +16°C° 0 mm 1 mps 748 mmHg 53%
    11:00 +19°C° 0 mm 1 mps 748 mmHg 48%
    12:00 +20°C° 0 mm 1 mps 747 mmHg 45%
    13:00 +20°C° 0 mm 2 mps 746 mmHg 42%
    14:00 +20°C° 0 mm 2 mps 746 mmHg 38%
    15:00 +20°C° 0 mm 1 mps 746 mmHg 43%
    16:00 +19°C° 0 mm 1 mps 745 mmHg 47%
    17:00 +18°C° 0 mm 1 mps 745 mmHg 51%
    18:00 +18°C° 0 mm 1 mps 746 mmHg 51%
    19:00 +16°C° 0 mm 1 mps 746 mmHg 50%
    20:00 +16°C° 0 mm 1 mps 747 mmHg 50%
    21:00 +16°C° 0 mm 1 mps 747 mmHg 51%
    22:00 +15°C° 0 mm 2 mps 747 mmHg 51%
    23:00 +15°C° 0 mm 2 mps 747 mmHg 52%

    21 January, Tuesday

    Time Temperature Precipitation Wind Pressure Humidity
    00:00 +15°C° 0 mm 2 mps 747 mmHg 53%
    01:00 +15°C° 0 mm 2 mps 746 mmHg 53%
    02:00 +15°C° 0 mm 2 mps 746 mmHg 53%
    03:00 +14°C° 0 mm 2 mps 746 mmHg 55%
    04:00 +14°C° 0 mm 2 mps 746 mmHg 57%
    05:00 +14°C° 0 mm 2 mps 746 mmHg 59%
    06:00 +14°C° 0 mm 2 mps 746 mmHg 61%
    07:00 +14°C° 0 mm 2 mps 747 mmHg 62%
    08:00 +14°C° 0 mm 2 mps 748 mmHg 64%
    09:00 +16°C° 0 mm 2 mps 748 mmHg 59%
    10:00 +18°C° 0 mm 2 mps 748 mmHg 53%
    11:00 +20°C° 0 mm 2 mps 749 mmHg 48%
    12:00 +21°C° 0 mm 2 mps 748 mmHg 45%
    13:00 +23°C° 0 mm 2 mps 747 mmHg 43%
    14:00 +23°C° 0 mm 2 mps 746 mmHg 41%
    15:00 +21°C° 0 mm 2 mps 746 mmHg 46%
    16:00 +20°C° 0 mm 2 mps 746 mmHg 52%
    17:00 +19°C° 0 mm 2 mps 746 mmHg 57%
    18:00 +18°C° 0 mm 2 mps 746 mmHg 59%
    19:00 +17°C° 0 mm 2 mps 747 mmHg 62%
    20:00 +16°C° 0 mm 2 mps 748 mmHg 64%
    21:00 +15°C° 0 mm 2 mps 748 mmHg 66%
    22:00 +15°C° 0 mm 2 mps 748 mmHg 68%
    23:00 +14°C° 0 mm 2 mps 748 mmHg 70%

    22 January, Wednesday

    Time Temperature Precipitation Wind Pressure Humidity
    00:00 +14°C° 0 mm 2 mps 748 mmHg 70%
    01:00 +14°C° 0 mm 2 mps 748 mmHg 70%
    02:00 +14°C° 0 mm 2 mps 747 mmHg 71%
    03:00 +13°C° 0 mm 2 mps 748 mmHg 71%
    04:00 +13°C° 0 mm 2 mps 748 mmHg 71%
    05:00 +13°C° 0 mm 2 mps 748 mmHg 70%
    06:00 +13°C° 0 mm 2 mps 748 mmHg 70%
    07:00 +14°C° 0 mm 2 mps 749 mmHg 69%
    08:00 +14°C° 0 mm 2 mps 750 mmHg 69%
    09:00 +16°C° 0 mm 2 mps 750 mmHg 62%
    10:00 +18°C° 0 mm 3 mps 750 mmHg 55%
    11:00 +21°C° 0 mm 3 mps 750 mmHg 48%
    12:00 +21°C° 0 mm 3 mps 750 mmHg 47%
    13:00 +22°C° 0 mm 3 mps 749 mmHg 46%
    14:00 +22°C° 0 mm 4 mps 748 mmHg 45%
    15:00 +21°C° 0 mm 3 mps 748 mmHg 51%
    16:00 +20°C° 0 mm 3 mps 748 mmHg 56%
    17:00 +19°C° 0 mm 2 mps 748 mmHg 62%
    18:00 +17°C° 0 mm 3 mps 748 mmHg 63%
    19:00 +16°C° 0 mm 3 mps 748 mmHg 65%
    20:00 +14°C° 0 mm 3 mps 749 mmHg 66%
    21:00 +14°C° 0 mm 3 mps 749 mmHg 65%
    22:00 +13°C° 0 mm 3 mps 749 mmHg 64%
    23:00 +12°C° 0 mm 4 mps 749 mmHg 63%
    Show more